Location: Novokuznetsk
(53.7500°N, 87.1000°E)
Time: 02:10:03
(UTC+06:00)

ISS - Pass Details

Date: 17 July 2018
Orbit: 402 x 408 km, 51.6° (Epoch: 20 July)

Event Time Altitude Azimuth Distance (km) Brightness Sun altitude
Exits shadow 01:03:20 19° 240° (WSW) 1,028 -2.2 -14.3°
Maximum altitude 01:05:25 52° 169° (S) 512 -3.7 -14.3°
Drops below altitude 10° 01:08:38 10° 92° (E) 1,472 -0.9 -14.2°
Sets 01:10:45 0° 88° (E) 2,334 0.2 -14.1°
